Grand Forks AFB, ND

8:22 PM CDT on September 22, 2017 (GMT -0500)
Grand Forks Air Force Base

Weather History for KRDR - July, 2013

Change the Weather History Date:

Wednesday, July 3, 2013

  Actual Average Record
Temperature  
Mean Temperature 73 °F -  
Max Temperature 88 °F 75 °F 89 °F (2010)
Min Temperature 59 °F 55 °F 44 °F (2008)
Cooling Degree Days 8    
Growing Degree Days 23 (Base 50)    
Moisture  
Dew Point 57 °F    
Average Humidity 56    
Maximum Humidity 91    
Minimum Humidity 31    
Precipitation  
Precipitation 0.00 in - - ()
Sea Level Pressure  
Sea Level Pressure 29.94 in    
Wind  
Wind Speed 6 mph (SSW)    
Max Wind Speed 16 mph    
Max Gust Speed 20 mph    
Visibility 10 miles    
Events      
Averages and records for this station are not official NWS values.
T = Trace of Precipitation, MM = Missing Value Source: NWS Daily Summary

Daily Weather History Graph

Daily Weather History Graph

Search for Another Location

Airport or City:

Trip Planner

Search our weather history database for the weather conditions in past years. The results will help you decide how hot, cold, wet, or windy it might be!

Date:

Astronomy

Jul. 03, 2013 Rise Set
Actual Time 5:35 AM CDT 9:31 PM CDT
Civil Twilight 4:55 AM CDT 10:12 PM CDT
Nautical Twilight 3:58 AM CDT 11:08 PM CDT
Astronomical Twilight 2:29 AM CDT 12:36 AM CDT
Moon 2:24 AM CDT (7/3) 5:35 PM CDT (7/3)
Length of Visible Light 17h 17m
Length of Day
15h 55m
Waning Crescent, 18% of the Moon is Illuminated
Jul 3
Waning Crescent
Jul 8
New
Jul 15
First Quarter
Jul 22
Full
Jul 29
Last Quarter

Hourly Weather History & Observations

Time (CDT) Temp. Heat Index Dew Point Humidity Pressure Visibility Wind Dir Wind Speed Gust Speed Precip Events Conditions
12:58 AM 65.5 °F - 57.7 °F 76% 30.03 in 10.0 mi WSW 4.6 mph - N/A   Clear
1:58 AM 64.2 °F - 57.6 °F 79% 30.01 in 10.0 mi WSW 3.5 mph - N/A   Clear
2:58 AM 61.2 °F - 56.7 °F 85% 30.02 in 10.0 mi WSW 1.2 mph - N/A   Clear
3:58 AM 59.9 °F - 56.8 °F 90% 30.02 in 10.0 mi Calm Calm - N/A   Clear
4:58 AM 59.7 °F - 57.2 °F 91% 30.01 in 10.0 mi West 1.2 mph - N/A   Clear
5:58 AM 59.7 °F - 56.3 °F 88% 30.01 in 10.0 mi SSE 3.5 mph - N/A   Clear
6:58 AM 63.9 °F - 58.8 °F 84% 30.01 in 10.0 mi SSW 5.8 mph - N/A   Clear
7:58 AM 70.5 °F - 61.2 °F 72% 30.00 in 10.0 mi South 4.6 mph - N/A   Clear
8:58 AM 76.3 °F - 60.6 °F 58% 29.99 in 10.0 mi South 4.6 mph - N/A   Clear
9:58 AM 80.6 °F 81.6 °F 61.3 °F 52% 29.99 in 10.0 mi SSW 5.8 mph - N/A   Clear
10:58 AM 84.0 °F 83.2 °F 56.5 °F 39% 29.97 in 10.0 mi SSE 8.1 mph - N/A   Clear
11:58 AM 86.0 °F 85.2 °F 58.1 °F 39% 29.96 in 10.0 mi South 12.7 mph - N/A   Clear
12:58 PM 87.1 °F 85.3 °F 54.9 °F 33% 29.95 in 10.0 mi SSW 12.7 mph - N/A   Scattered Clouds
1:58 PM 87.3 °F - 52.9 °F 31% 29.94 in 10.0 mi SSW 10.4 mph 17.3 mph N/A   Scattered Clouds
2:58 PM 86.7 °F 84.7 °F 53.2 °F 32% 29.93 in 10.0 mi SW 5.8 mph - N/A   Partly Cloudy
3:58 PM 85.1 °F 84.1 °F 56.7 °F 38% 29.92 in 10.0 mi SSE 12.7 mph - N/A   Scattered Clouds
4:58 PM 85.6 °F 84.1 °F 55.2 °F 35% 29.90 in 10.0 mi SSE 16.1 mph 19.6 mph N/A   Partly Cloudy
5:09 PM 86.0 °F 84.5 °F 55.4 °F 35% 29.89 in 10.0 mi SSW 12.7 mph - N/A   Clear
5:58 PM 86.4 °F 84.5 °F 53.8 °F 33% 29.88 in 10.0 mi South 13.8 mph - N/A   Clear
6:58 PM 85.1 °F 83.5 °F 54.0 °F 34% 29.86 in 10.0 mi South 11.5 mph - N/A   Clear
7:58 PM 82.6 °F 82.1 °F 56.5 °F 41% 29.85 in 10.0 mi South 9.2 mph - N/A   Clear
8:58 PM 77.7 °F - 58.5 °F 51% 29.84 in 10.0 mi South 9.2 mph - N/A   Clear
9:58 PM 72.3 °F - 57.9 °F 60% 29.84 in 10.0 mi South 10.4 mph - N/A   Clear
10:58 PM 73.8 °F - 55.9 °F 54% 29.84 in 10.0 mi South 9.2 mph - N/A   Clear
11:58 PM 69.8 °F - 56.5 °F 63% 29.83 in 10.0 mi South 9.2 mph - N/A   Clear